Home   Weather   Cardiff   Past weeks
Flag for United Kingdom

Past Weather in Cardiff, Wales, United Kingdom — Yesterday and Last 2 Weeks

Now
43 °F

Quite cool.


Feels Like: 36 °F
Forecast: 55 / 43 °F
Wind: 12 mph from East

Location: Wales Airport

Current Time: Feb 23, 2019 at 12:52:57 am

Latest Report: Feb 22, 2019 at 11:50 pm


Visibility: 6 mi

Pressure: 30.48 "Hg

Humidity: 87%

Dew Point: 39 °F

Location of CardiffLocation

Past Weather in Cardiff — Graph

°F

Cardiff Temperature Yesterday

Maximum temperature yesterday: 50 °F (at 1:50 pm)
Minimum temperature yesterday: 43 °F (at 2:20 am)
Average temperature yesterday: 45 °F

High & Low Weather Summary for the Past Weeks

 TemperatureHumidityPressure
High57 °F (Feb 21, 1:50 pm)100% (Feb 10, 1:20 am)30.54 "Hg (Feb 10, 1:20 am)
Low32 °F (Feb 12, 12:50 am)67% (Feb 17, 5:50 pm)29.27 "Hg (Feb 8, 2:50 pm)
Average46 °F87%30.07 "Hg
* Reported Feb 8 12:20 am — Feb 22 11:20 pm, Cardiff. Weather by CustomWeather, © 2019

Note: Actual official high and low records may vary slightly from our data, if they occured in-between our weather recording intervals... More about our weather records

Advertising

Cardiff Weather History for the Previous 24 Hours

Scroll right to see more
 ConditionsComfort  
Time TempWeatherWind HumidityBarometerVisibility
11:20 pm
Fri, Feb 22
43 °FQuite cool.10 mph87%30.48 "Hg4 mi
10:50 pm43 °FHaze.13 mph93%30.48 "Hg3 mi
10:20 pm43 °FHaze.12 mph93%30.48 "Hg3 mi
9:50 pm43 °FHaze.13 mph93%30.48 "Hg2 mi
9:20 pm43 °FHaze.13 mph93%30.48 "Hg2 mi
8:50 pm43 °FFog.13 mph100%30.48 "Hg2 mi
8:20 pm45 °FHaze.10 mph93%30.51 "Hg2 mi
7:50 pm45 °FHaze.12 mph93%30.51 "Hg2 mi
7:20 pm45 °FQuite cool.9 mph93%30.51 "Hg4 mi
6:50 pm46 °FCool.7 mph87%30.51 "Hg6 mi
5:20 pm48 °FCool.9 mph87%30.51 "HgN/A
4:50 pm50 °FCool.10 mph82%30.48 "HgN/A
4:20 pm50 °FCool.12 mph88%30.48 "HgN/A
3:50 pm50 °FCool.10 mph88%30.48 "HgN/A
3:20 pm50 °FCool.12 mph88%30.48 "HgN/A
2:50 pm50 °FCool.13 mph88%30.51 "HgN/A
2:20 pm50 °FCool.9 mph88%30.51 "HgN/A
1:50 pm50 °FCool.12 mph88%30.51 "HgN/A
1:20 pm48 °FCool.14 mph94%30.51 "HgN/A
12:50 pm48 °FCool.13 mph94%30.51 "HgN/A
11:50 am46 °FPartly sunny.13 mph100%30.54 "Hg5 mi
11:20 am45 °FMostly cloudy.14 mph100%30.54 "Hg4 mi
10:50 am45 °FFog.15 mph100%30.54 "Hg2 mi
10:20 am45 °FFog.16 mph100%30.54 "Hg1 mi
9:50 am45 °FFog.16 mph100%30.54 "Hg1 mi
9:20 am43 °FFog.14 mph100%30.54 "Hg0 mi
8:50 am43 °FFog.16 mph100%30.54 "Hg0 mi
8:20 am43 °FFog.14 mph100%30.51 "Hg0 mi
7:50 am43 °FFog.13 mph100%30.51 "Hg0 mi
7:20 am45 °FFog.10 mph93%30.51 "Hg0 mi
6:50 am45 °FFog.12 mph100%30.48 "Hg0 mi
6:20 am45 °FFog.13 mph100%30.48 "Hg0 mi
5:50 am45 °FFog.16 mph93%30.45 "Hg0 mi
5:20 am45 °FFog.14 mph100%30.45 "Hg0 mi
4:50 am45 °FFog.14 mph93%30.45 "Hg0 mi
4:20 am43 °FFog.14 mph100%30.45 "Hg0 mi
3:50 am43 °FFog.13 mph100%30.45 "Hg0 mi
3:20 am43 °FFog.12 mph100%30.45 "Hg0 mi
2:20 am43 °FFog.8 mph100%30.45 "Hg1 mi
1:50 am45 °FFog.7 mph93%30.45 "Hg2 mi
1:20 am45 °FFog.9 mph93%30.45 "Hg2 mi
12:50 am45 °FFog.6 mph93%30.45 "Hg2 mi
12:20 am45 °FFog.7 mph100%30.45 "Hg2 mi
Weather by CustomWeather, © 2019

See weather overview